sat.trackr.live / text

‹ back to catalog

KUIPER-00116

NORAD 65153 · 2025-171X

PAYLOAD ACTIVE UNKNOWN

§ Identity

Operator
Country
US
Launch date
2025-08-11
Launch site
AFETR
Launch vehicle
Mass (kg)
RCS (m²)

External: N2YO · Heavens-Above · Gunter

§ Orbital elements

Epoch: 2026-09-21T12:45:24.262848Z

Period
97.30 min
Inclination
51.9012°
Eccentricity
0.0000476
Mean motion
14.79934164 rev/d
Perigee alt
629.2 km
Apogee alt
629.9 km
Semi-major
7,007.7 km
B*
5.7733e-5
RAAN
27.1178°
Arg perigee
104.2052°
Mean anomaly
255.8963°
Rev number
6,167

§ Raw data

KUIPER-001161 65153U 25171X   26264.53153082  .00000219  00000+0  57733-4 0  99932 65153  51.9012  27.1178 0000476 104.2052 255.8963 14.79934164 61673

JSON: /api/v1/satellites/65153 · /tle

For live sub-satellite position, see the globe view (requires WebGL).

§ Visibility from observer

Set your observer location to see the next 7 days of passes ≥ 10°. The values pass through the URL so the page stays shareable.

No JS? Fill the form by hand. The geolocation button needs JavaScript.